Temperature
22 21 21 21 23 26 28 30 31 30 30 30 29 29 27 27 26 24 23 22 21 21 21 21 20 20 20 20 20 20 20 19 19 19 19 19 19 19 19 19 19 19 19 19 19 19 19 19 19
22 21 21 23 25 27 28 30 30 30 30 30 29 28 27 26 25 24 23 22 21 21 21 20 20 20 20 20 20 20 20 19 19 19 19 19 19 19 19 19 19 19 19 19 19 19 19 19 19
22 22 24 26 27 28 29 30 31 31 30 30 29 28 27 26 24 23 23 22 21 21 21 21 20 20 20 20 20 20 19 19 19 19 19 19 19 19 19 19 19 19 19 19 19 19 19 19 19
22 24 25 27 28 30 30 31 31 31 30 30 29 27 26 25 24 23 23 22 22 21 21 21 21 20 20 20 20 20 19 19 19 19 19 19 19 19 19 19 19 19 19 19 19 19 19 19 19
23 26 28 28 30 31 32 32 31 31 30 29 28 27 25 25 24 23 23 23 22 21 21 21 21 20 20 20 20 20 20 19 19 19 19 19 19 19 19 19 19 19 19 19 19 19 19 19 19
26 28 28 29 30 32 32 32 31 31 30 29 28 26 25 24 24 24 23 23 22 21 21 21 21 20 20 20 20 20 20 20 19 19 19 19 19 19 19 19 19 19 19 19 19 19 19 19 19
28 29 30 30 31 31 32 32 31 31 30 30 28 27 25 25 24 24 23 23 22 22 21 21 21 21 20 20 20 20 20 20 20 19 19 19 19 19 19 19 19 19 19 19 19 19 19 19 19
30 31 30 31 31 31 32 32 31 31 30 29 29 27 26 25 24 24 23 23 22 22 21 21 21 20 20 20 20 20 20 20 20 19 19 19 19 19 19 19 19 19 19 19 19 19 19 19 19
31 30 30 31 32 32 32 32 31 30 30 29 29 27 26 25 24 24 24 23 22 22 21 21 21 20 20 20 20 20 20 20 19 19 19 19 19 19 19 19 19 19 19 19 19 19 19 19 19
32 30 31 33 33 33 33 32 31 31 29 29 28 26 25 25 25 25 24 23 22 22 22 21 21 21 20 20 20 20 19 19 19 19 19 19 19 19 19 19 19 19 19 19 19 19 19 19 19
33 32 33 34 33 33 33 32 32 31 30 29 28 26 26 25 25 25 24 24 23 22 22 22 21 21 21 20 20 20 20 19 19 19 19 19 19 19 19 19 19 19 19 19 19 19 19 19 19
34 34 34 34 34 33 33 32 32 31 30 29 28 26 26 25 25 25 24 24 23 22 22 21 21 21 21 20 20 20 20 20 19 19 19 19 19 19 19 19 19 19 19 19 19 19 19 19 19
34 34 34 34 34 33 33 32 32 31 30 29 28 27 26 26 26 25 24 24 23 22 22 21 21 21 21 20 20 20 20 20 20 20 19 19 19 19 19 19 19 19 19 19 19 19 19 19 19
34 35 34 34 34 33 33 32 31 31 30 29 28 28 27 27 26 25 25 24 23 22 22 21 21 21 21 20 20 20 20 20 20 20 19 19 19 19 19 19 19 19 19 19 19 19 19 19 19
34 34 34 35 34 33 32 31 31 31 31 30 29 28 27 27 26 25 25 24 23 22 22 21 21 21 21 20 20 20 20 20 20 20 19 19 19 19 19 19 19 19 19 19 19 19 19 19 19
34 32 32 34 35 34 32 30 31 31 31 30 29 29 28 27 26 25 25 24 23 22 22 21 21 21 21 20 20 20 20 20 20 20 19 19 19 19 19 19 19 19 19 19 19 19 19 19 19
32 31 32 33 35 34 33 31 32 31 31 31 30 29 28 27 27 26 25 24 23 22 22 21 21 21 21 20 20 20 20 20 20 20 19 19 19 19 19 19 19 19 19 19 19 19 19 19 19
31 32 33 33 34 34 33 32 32 32 32 31 30 29 28 27 27 26 25 24 23 22 22 21 21 21 21 20 20 20 20 20 20 20 19 19 19 19 19 19 19 19 19 19 19 19 19 19 19
34 33 33 34 35 34 33 33 33 33 32 31 30 29 28 28 27 26 25 24 23 22 22 21 21 21 21 20 20 20 20 20 20 20 19 19 19 19 19 19 19 19 19 19 19 18 18 18 19
34 33 33 34 35 34 33 33 33 33 33 32 31 30 29 28 27 26 25 24 23 22 22 21 21 21 21 21 21 20 20 20 20 20 19 19 19 19 19 19 19 19 19 19 19 19 18 18 18
34 34 34 33 34 34 33 32 33 33 33 32 31 30 29 28 27 26 25 24 24 23 22 22 21 21 21 21 21 20 20 20 20 19 19 19 19 19 19 19 19 19 19 19 19 19 18 18 18
33 35 35 34 33 33 33 31 31 32 32 32 31 31 30 28 27 26 25 25 24 23 22 22 22 21 21 21 20 20 20 20 20 19 19 19 19 19 19 19 19 19 19 18 18 18 18 18 18
34 35 34 34 33 33 33 32 31 32 32 32 32 31 30 29 28 27 26 25 24 23 22 22 22 21 21 21 20 20 20 20 20 19 19 19 19 19 19 19 19 19 19 18 18 18 18 18 18
35 34 33 33 32 31 32 32 31 32 32 32 32 31 31 30 29 27 26 25 24 23 22 22 21 21 21 21 20 20 20 20 20 19 19 19 19 19 19 19 19 19 19 18 18 18 18 18 18
34 32 31 30 30 31 33 32 32 33 33 32 32 32 31 30 29 27 26 25 24 23 22 22 21 21 21 20 20 20 20 19 19 19 19 19 19 19 19 19 19 19 18 18 18 18 18 18 18
33 32 30 30 30 31 32 31 32 33 33 33 32 32 31 30 29 27 26 25 24 23 22 22 21 20 20 20 20 20 20 19 19 19 19 19 19 19 18 18 18 18 18 18 18 18 17 17 17
33 33 34 32 32 31 31 31 32 32 32 32 32 31 30 29 28 27 26 25 24 23 22 22 21 20 20 20 20 20 20 19 19 19 19 19 18 18 18 18 18 18 18 18 17 17 17 17 17
34 34 33 32 30 30 30 31 30 31 31 31 31 31 30 29 28 27 26 25 24 23 22 22 21 20 20 20 19 19 19 19 19 19 19 18 18 18 18 18 18 18 18 18 17 17 17 17 17
34 33 32 32 32 31 30 30 32 31 31 31 31 31 30 29 28 26 26 25 24 23 22 21 21 20 20 20 19 19 19 19 19 18 18 18 18 18 18 17 17 17 17 17 17 17 17 16 16
34 33 33 31 30 31 31 30 33 32 31 31 31 29 28 28 27 26 25 24 24 23 22 21 21 20 20 19 19 19 19 19 18 18 18 18 18 17 17 17 17 17 17 17 17 17 16 16 16
Wind_Speed
10 11 8 5 4 1 9 13 13 13 13 14 13 13 16 15 10 9 8 12 13 13 13 13 12 11 10 10 9 9 9 10 10 9 9 9 9 9 10 10 10 10 10 10 10 10 9 9 8
10 10 7 4 1 6 10 12 13 13 12 12 14 15 16 15 13 11 10 11 13 13 13 12 12 11 11 9 9 9 9 9 9 9 8 8 8 9 10 10 10 9 10 10 10 9 8 8 7
9 10 5 1 5 8 10 11 12 13 11 11 13 15 13 11 11 10 11 12 13 14 14 14 12 11 11 10 9 8 8 8 9 8 8 8 8 9 9 9 9 9 9 9 8 8 7 7 7
6 5 4 1 7 10 10 10 11 12 12 12 13 12 12 11 11 13 12 13 14 15 16 15 13 12 11 10 9 8 8 8 8 8 8 7 8 9 9 9 9 8 8 8 7 7 6 6 6
7 4 1 5 10 11 11 11 11 12 12 13 15 15 13 12 15 14 12 12 14 14 15 15 14 13 12 10 9 9 9 8 7 7 7 7 7 8 8 8 8 8 8 7 6 6 5 6 6
5 3 2 7 10 11 11 10 10 12 12 13 15 15 11 12 12 12 12 12 13 14 14 14 14 13 12 10 9 9 9 8 7 7 7 7 8 8 8 9 8 8 7 6 6 6 5 6 6
7 2 4 6 9 11 11 10 10 11 11 11 12 13 10 11 11 12 12 11 12 13 13 12 13 12 11 11 10 9 8 8 7 6 6 7 7 7 8 9 8 7 7 6 6 6 6 7 8
6 3 5 6 10 10 11 11 10 12 11 9 9 10 11 12 11 12 12 11 11 11 11 11 11 11 11 11 10 9 8 8 7 6 6 6 7 7 8 8 8 8 8 7 7 7 8 8 9
5 2 4 7 8 8 9 9 10 11 11 11 11 14 14 14 13 12 11 11 9 9 9 8 9 8 9 10 11 10 9 8 7 6 6 6 6 7 8 8 9 8 8 8 8 9 9 9 10
0 3 4 5 7 8 8 8 8 10 11 10 14 16 16 13 12 11 11 10 10 9 8 7 7 7 7 7 9 7 7 7 6 5 6 5 4 4 6 9 10 9 8 8 9 10 10 10 8
1 4 3 5 7 6 7 8 8 9 9 10 14 15 15 12 10 10 10 10 10 9 7 7 6 6 5 5 6 4 4 6 5 5 5 3 2 2 4 5 7 8 8 7 8 9 8 8 6
1 3 4 5 5 6 7 8 9 9 10 12 14 15 14 12 10 9 8 10 10 9 8 6 7 5 4 4 3 4 3 3 3 5 4 2 1 1 1 1 2 4 4 4 4 4 5 5 4
1 1 2 3 5 6 6 7 8 9 11 13 13 14 13 11 10 9 8 9 9 8 8 7 7 5 4 3 0 2 2 3 4 4 3 2 2 1 1 1 0 1 1 2 2 2 3 3 3
3 2 0 2 5 4 5 6 6 7 10 12 12 12 12 10 10 10 9 9 9 8 7 7 7 6 4 2 1 1 2 3 4 4 5 2 2 2 1 1 1 1 1 0 1 2 2 2 2
5 4 4 3 5 5 3 4 5 8 10 11 11 10 11 10 10 9 9 9 10 8 7 7 8 6 4 3 2 2 2 3 3 4 5 4 3 2 1 0 0 1 1 1 1 2 1 2 2
7 6 5 3 3 5 4 3 5 8 9 10 11 11 10 9 10 10 10 9 9 9 7 6 5 7 6 3 2 1 1 3 3 4 4 4 3 1 0 0 0 1 1 1 0 0 1 2 1
7 7 7 4 3 4 4 6 8 11 9 10 10 10 10 10 10 10 11 10 9 9 8 6 4 5 5 4 3 2 1 2 2 3 3 3 2 1 1 1 0 1 0 1 1 2 1 2 2
7 7 7 4 3 4 2 6 10 11 10 10 10 10 9 9 9 10 10 11 10 10 9 7 6 4 4 3 3 2 1 2 2 3 3 3 2 1 1 1 1 0 1 1 1 1 2 2 2
9 8 6 4 5 4 4 5 9 9 9 10 11 11 10 10 9 9 10 11 11 10 9 8 6 6 4 3 2 2 2 2 2 3 4 4 2 1 0 2 1 0 1 0 1 1 2 2 1
12 10 8 5 3 3 4 5 7 8 8 9 10 11 11 11 10 9 10 10 11 11 9 9 7 6 5 4 3 3 2 2 3 1 3 3 2 0 0 1 1 1 0 0 1 1 2 2 0
11 10 9 6 5 6 5 5 5 7 8 9 10 12 11 11 12 11 11 10 10 11 11 9 8 7 5 4 3 2 2 1 1 2 2 2 2 1 0 1 0 2 1 1 1 1 2 2 2
11 9 9 9 8 7 7 5 5 7 8 9 9 10 12 12 13 13 12 11 10 10 10 9 8 7 5 4 3 3 3 2 2 2 2 2 2 1 1 1 0 1 1 1 2 1 2 2 2
9 8 10 11 10 9 9 6 5 8 9 9 8 8 10 12 13 13 13 11 10 10 10 9 8 7 6 5 4 3 2 2 2 2 2 2 2 2 1 1 1 1 1 1 2 2 2 1 2
9 9 10 11 10 11 10 8 5 6 6 7 8 10 10 11 12 13 12 11 10 9 9 9 8 7 6 5 4 4 3 2 2 2 1 2 2 2 1 1 1 1 1 2 2 3 2 2 2
8 9 7 8 9 10 7 6 3 5 6 7 7 8 10 10 11 12 12 12 10 10 10 9 9 7 6 5 4 4 3 3 3 2 2 2 2 1 0 1 1 2 2 3 3 2 3 3 3
10 10 9 9 9 8 5 5 2 4 4 6 6 7 9 9 9 11 10 11 10 10 10 10 10 8 7 6 4 3 3 3 2 2 2 2 1 0 0 1 1 1 2 3 2 3 3 2 4
12 12 12 11 13 10 5 3 2 3 4 3 4 6 8 8 8 9 10 11 11 10 10 10 10 8 7 7 5 4 3 2 2 1 1 1 1 1 1 0 0 1 2 2 2 2 2 2 3
13 12 9 10 8 10 8 5 3 4 4 3 3 5 8 8 6 7 9 10 10 10 9 9 9 7 6 6 6 5 4 3 2 2 2 1 1 1 1 1 1 2 2 2 3 3 2 2 3
12 12 10 9 10 9 8 4 3 4 5 5 4 5 7 8 9 6 5 7 9 9 9 9 8 8 7 6 5 4 4 3 3 2 2 1 1 1 1 2 2 2 2 2 3 3 3 3 4
12 12 12 10 9 10 10 4 1 3 3 3 5 6 7 6 7 7 6 6 6 7 8 7 7 7 6 5 4 3 3 3 3 3 2 2 2 2 2 2 3 4 3 2 3 4 4 4 3
Wind_Direction
189 205 213 238 243 76 55 62 62 60 61 59 58 65 67 55 67 89 101 104 111 115 119 119 115 114 112 108 106 106 108 114 116 116 117 121 126 126 123 123 120 122 128 130 128 127 126 125 122
207 216 223 246 331 60 62 61 64 65 70 72 66 65 70 65 76 96 102 108 114 119 123 119 120 117 115 111 106 107 111 118 120 120 119 123 129 130 129 129 128 129 131 132 132 131 131 133 133
237 242 254 226 57 58 66 68 68 73 72 77 77 63 63 75 84 100 111 115 109 111 115 118 122 118 117 114 110 109 112 120 126 128 125 127 137 134 131 134 134 137 136 134 136 137 139 142 147
237 226 230 78 73 74 73 76 76 76 70 74 80 76 67 73 95 106 116 115 110 111 113 119 121 121 119 117 116 113 111 117 125 131 130 128 136 141 140 141 140 141 141 138 142 146 152 158 167
237 256 167 70 75 77 77 74 76 83 82 82 85 86 80 81 99 112 118 111 109 110 113 121 122 124 122 121 119 117 116 117 123 131 138 139 143 145 145 145 147 148 147 150 155 162 170 178 187
260 252 60 74 75 75 76 79 82 82 88 94 96 93 91 103 109 117 112 109 110 111 115 124 126 125 126 124 125 123 122 125 128 131 140 148 152 154 155 154 156 159 159 164 169 180 190 197 203
257 320 48 69 80 75 76 72 74 82 81 85 99 98 109 114 118 118 112 108 107 112 119 129 133 133 132 128 125 132 132 136 139 137 143 152 156 161 160 161 165 169 173 179 181 191 203 209 216
264 342 27 65 75 76 80 78 76 83 82 87 95 104 119 124 128 122 116 108 105 110 117 124 130 135 142 140 137 139 142 146 148 152 159 162 168 173 172 172 178 181 185 190 193 204 214 222 228
271 26 31 54 76 89 87 88 90 92 90 83 80 103 121 131 132 127 119 115 112 110 112 118 124 135 139 140 143 152 154 161 164 168 177 182 186 183 181 178 175 184 189 192 203 213 218 227 232
44 70 49 58 75 91 92 91 98 102 95 95 97 108 120 131 136 133 126 126 122 120 119 119 126 122 129 130 133 151 158 156 173 169 180 198 192 170 155 164 179 190 196 200 212 223 225 229 228
111 92 72 67 83 94 96 91 91 100 115 122 119 124 129 135 140 135 131 130 129 130 122 120 116 111 113 117 135 147 149 150 163 148 150 163 160 149 151 167 179 195 202 210 207 218 229 228 220
62 68 64 63 82 90 93 90 86 87 100 115 124 133 138 141 144 133 131 130 127 127 123 118 107 97 83 92 118 142 148 149 138 132 136 139 115 77 107 192 182 197 190 195 202 207 229 238 237
5 64 95 100 89 86 98 95 94 101 110 119 128 138 141 144 143 132 130 127 124 127 126 117 104 98 88 71 86 131 136 125 118 129 125 113 114 88 72 26 10 277 215 199 214 224 234 233 230
313 310 269 122 117 118 106 108 113 123 127 130 136 142 146 149 147 140 138 132 131 131 127 121 119 119 121 135 222 137 134 121 122 126 122 128 111 87 60 341 334 318 340 267 253 251 243 249 255
282 296 279 209 144 138 112 110 139 146 143 139 140 145 150 150 144 140 140 139 136 134 133 133 140 136 142 160 206 167 156 133 130 127 127 122 101 91 66 256 281 18 321 258 228 271 266 251 263
275 264 257 229 169 144 136 141 155 155 151 145 149 151 150 149 151 148 147 141 137 138 138 143 151 145 152 167 201 166 126 117 122 117 119 117 105 101 255 354 33 302 252 210 227 270 330 310 291
260 248 243 227 172 152 179 164 172 169 154 154 155 154 156 156 157 153 152 145 143 140 142 148 141 139 156 166 189 189 154 115 119 116 109 112 117 124 278 81 323 274 325 22 1 55 325 296 309
266 262 240 232 196 175 188 162 170 169 163 165 159 157 160 162 161 155 154 151 148 145 146 150 146 143 154 156 169 171 146 130 119 112 113 116 125 117 321 206 204 324 51 22 29 339 289 280 267
267 268 279 237 213 208 198 180 172 172 171 169 164 164 167 168 162 158 160 158 152 147 148 151 153 150 154 153 159 160 164 159 135 139 129 133 130 162 255 324 333 344 102 75 327 340 305 275 246
267 268 262 258 244 231 224 204 176 177 185 173 173 170 171 168 162 163 166 163 157 155 155 154 155 156 165 171 175 171 170 164 144 137 129 132 121 64 323 15 349 326 224 210 296 306 299 304 275
266 268 267 265 273 256 245 244 197 191 185 175 182 174 171 174 170 168 169 169 164 161 162 165 162 159 168 170 175 163 149 176 133 140 139 137 136 149 59 109 102 285 272 272 249 274 307 301 297
266 270 272 268 262 260 246 249 212 202 191 180 186 176 172 174 170 169 172 173 170 163 160 156 155 155 159 162 169 178 173 174 166 161 147 158 178 207 200 146 215 283 279 300 280 11 301 299 300
274 289 285 284 275 265 252 246 223 202 194 183 186 177 173 169 170 169 173 171 168 161 159 154 153 155 159 169 168 179 188 165 147 156 167 188 206 225 199 153 261 276 263 290 301 306 299 293 287
277 282 278 276 272 257 252 253 228 198 180 174 181 177 170 163 164 164 165 158 160 157 155 152 152 157 162 174 180 181 186 179 178 189 188 221 223 222 251 159 290 286 287 291 269 272 274 270 282
247 264 269 263 252 251 251 251 219 164 164 168 192 177 164 161 159 158 160 157 161 161 159 157 156 161 164 172 184 187 191 191 187 203 207 245 244 181 23 350 299 291 293 276 268 269 279 270 273
242 239 249 266 270 270 237 229 196 140 136 148 168 168 161 158 157 154 156 154 159 163 162 161 159 164 166 171 180 184 197 204 193 204 224 250 289 41 108 23 337 302 310 308 316 289 273 287 292
250 249 255 263 270 278 263 221 145 116 112 137 161 155 141 148 153 153 159 160 160 166 167 164 159 164 171 174 174 177 189 211 221 209 222 230 282 257 82 16 331 310 311 302 294 280 290 305 293
246 262 267 263 271 276 267 237 191 157 151 178 175 150 134 135 135 151 158 160 161 164 161 156 154 162 169 170 183 184 189 196 215 206 221 224 207 324 346 307 284 273 265 271 282 278 267 261 257
238 245 258 272 278 282 281 284 167 173 164 172 176 125 124 132 133 138 146 144 155 155 154 157 158 165 170 175 180 187 183 192 202 203 207 240 265 285 306 290 287 274 262 260 266 279 272 265 272
249 250 252 254 259 269 276 273 135 133 144 136 112 99 99 103 120 127 123 120 130 138 145 149 160 168 170 174 178 190 189 192 200 213 212 220 259 266 263 272 279 273 271 277 278 279 283 275 273
Height
1488 1488 1489 1492 1490 1487 1483 1473 1468 1469 1470 1473 1474 1476 1481 1485 1490 1501 1501 1500 1500 1501 1502 1503 1505 1506 1506 1507 1508 1509 1509 1510 1511 1513 1514 1515 1516 1517 1518 1520 1522 1523 1525 1527 1529 1530 1531 1533 1534
1488 1489 1492 1491 1488 1491 1485 1473 1472 1472 1474 1475 1477 1480 1484 1490 1494 1498 1501 1501 1501 1501 1502 1504 1505 1507 1508 1508 1509 1510 1511 1512 1513 1514 1515 1516 1517 1518 1520 1521 1523 1525 1526 1528 1530 1531 1532 1534 1535
1488 1490 1492 1487 1486 1489 1484 1474 1472 1474 1476 1477 1480 1485 1489 1494 1497 1500 1502 1502 1502 1502 1503 1505 1506 1508 1509 1510 1511 1511 1512 1513 1514 1515 1516 1517 1518 1519 1521 1523 1524 1526 1527 1529 1531 1532 1533 1535 1536
1490 1491 1489 1485 1485 1478 1474 1472 1473 1475 1478 1479 1482 1489 1495 1498 1500 1502 1503 1504 1504 1504 1504 1506 1508 1509 1510 1511 1512 1512 1513 1514 1515 1516 1518 1518 1519 1521 1522 1524 1525 1526 1528 1530 1531 1533 1534 1535 1536
1492 1488 1485 1485 1479 1473 1471 1473 1474 1476 1479 1482 1486 1493 1498 1501 1502 1504 1505 1506 1506 1507 1507 1509 1509 1510 1511 1512 1513 1514 1515 1515 1516 1518 1519 1520 1521 1522 1524 1525 1526 1527 1529 1530 1532 1533 1534 1536 1537
1491 1483 1487 1488 1480 1473 1472 1474 1475 1477 1481 1484 1488 1494 1501 1504 1505 1506 1507 1509 1509 1509 1510 1510 1511 1512 1513 1514 1514 1515 1516 1517 1518 1519 1520 1521 1522 1523 1525 1526 1527 1528 1530 1531 1532 1533 1534 1535 1536
1487 1481 1484 1482 1479 1476 1474 1475 1477 1479 1482 1485 1489 1495 1501 1504 1506 1507 1509 1510 1511 1512 1512 1512 1512 1513 1514 1515 1515 1516 1517 1518 1520 1521 1522 1523 1524 1525 1526 1527 1528 1529 1530 1531 1532 1533 1534 1535 1536
1483 1481 1481 1478 1479 1480 1476 1477 1479 1481 1485 1487 1489 1494 1501 1505 1507 1509 1511 1512 1513 1514 1514 1514 1515 1515 1516 1516 1517 1518 1519 1520 1521 1522 1523 1524 1525 1526 1527 1528 1529 1530 1530 1531 1532 1533 1534 1535 1536
1481 1484 1485 1480 1478 1478 1476 1478 1480 1483 1486 1489 1491 1494 1500 1505 1508 1510 1512 1513 1515 1516 1516 1517 1517 1517 1518 1519 1519 1520 1521 1522 1523 1524 1525 1526 1526 1527 1528 1529 1530 1530 1531 1532 1533 1533 1534 1535 1535
1478 1485 1482 1474 1473 1474 1476 1478 1480 1484 1489 1491 1495 1498 1502 1505 1508 1510 1512 1514 1515 1517 1518 1518 1519 1519 1520 1521 1521 1522 1523 1523 1524 1525 1526 1527 1528 1528 1529 1530 1531 1531 1532 1533 1533 1534 1534 1535 1535
1475 1477 1474 1472 1473 1475 1476 1478 1480 1483 1488 1491 1495 1500 1503 1506 1508 1510 1512 1514 1516 1517 1519 1520 1520 1521 1521 1522 1523 1524 1524 1525 1525 1526 1527 1528 1529 1530 1530 1531 1531 1532 1532 1533 1534 1534 1534 1535 1535
1474 1473 1473 1473 1474 1475 1476 1479 1481 1484 1488 1491 1495 1499 1503 1506 1508 1510 1512 1514 1516 1518 1519 1520 1521 1521 1522 1523 1524 1525 1526 1526 1527 1527 1528 1529 1530 1530 1531 1532 1532 1532 1533 1533 1533 1534 1534 1534 1535
1473 1473 1472 1473 1474 1476 1477 1480 1483 1486 1489 1493 1496 1500 1503 1506 1508 1510 1513 1515 1516 1518 1519 1520 1521 1522 1523 1524 1525 1526 1527 1528 1528 1528 1528 1529 1530 1531 1531 1532 1532 1532 1533 1533 1533 1533 1533 1534 1534
1473 1472 1471 1472 1473 1476 1477 1481 1484 1487 1489 1493 1496 1500 1502 1505 1508 1510 1513 1514 1516 1518 1520 1521 1521 1522 1523 1524 1526 1527 1528 1528 1529 1529 1529 1529 1530 1530 1531 1532 1532 1532 1532 1532 1532 1533 1533 1533 1533
1474 1474 1473 1470 1471 1474 1477 1483 1484 1486 1488 1492 1496 1499 1502 1505 1507 1510 1512 1514 1516 1518 1519 1520 1521 1522 1524 1525 1526 1527 1528 1529 1529 1529 1530 1530 1530 1530 1531 1531 1531 1531 1531 1531 1532 1532 1532 1532 1532
1475 1480 1482 1472 1469 1472 1480 1493 1483 1485 1487 1490 1494 1497 1501 1504 1506 1509 1512 1514 1516 1517 1519 1520 1522 1523 1524 1525 1526 1527 1528 1528 1529 1530 1530 1530 1531 1531 1531 1531 1531 1531 1531 1531 1531 1531 1531 1531 1531
1481 1487 1485 1475 1468 1469 1475 1485 1480 1482 1485 1488 1492 1496 1499 1503 1506 1508 1511 1513 1515 1516 1518 1519 1521 1522 1523 1524 1526 1527 1528 1529 1529 1530 1530 1530 1531 1531 1531 1531 1531 1531 1530 1530 1530 1530 1530 1529 1529
1488 1483 1479 1477 1468 1467 1473 1476 1476 1478 1482 1485 1489 1493 1498 1501 1504 1507 1509 1511 1514 1515 1517 1518 1520 1521 1523 1524 1525 1526 1527 1528 1529 1529 1530 1530 1530 1531 1531 1531 1531 1531 1530 1529 1529 1529 1529 1528 1528
1472 1475 1475 1470 1463 1465 1472 1473 1473 1475 1478 1482 1486 1491 1495 1499 1503 1505 1508 1510 1512 1514 1515 1517 1519 1520 1522 1523 1524 1525 1526 1528 1529 1529 1530 1530 1530 1530 1530 1531 1530 1530 1529 1529 1528 1528 1527 1527 1527
1470 1475 1474 1468 1460 1464 1469 1471 1469 1473 1475 1478 1483 1487 1492 1496 1500 1503 1506 1508 1510 1512 1514 1516 1517 1519 1520 1522 1524 1525 1526 1528 1528 1529 1529 1529 1529 1530 1530 1530 1529 1529 1529 1528 1528 1527 1526 1526 1526
1469 1472 1470 1471 1465 1463 1470 1477 1471 1470 1471 1476 1480 1483 1487 1492 1496 1500 1503 1506 1508 1510 1512 1514 1515 1517 1519 1521 1523 1525 1526 1527 1528 1528 1528 1529 1529 1529 1529 1529 1528 1528 1528 1527 1527 1527 1526 1525 1526
1472 1462 1462 1465 1471 1475 1473 1492 1478 1470 1472 1473 1476 1479 1483 1488 1492 1496 1500 1504 1506 1508 1510 1512 1514 1516 1518 1520 1521 1522 1524 1525 1526 1527 1527 1528 1528 1528 1527 1527 1527 1527 1526 1526 1526 1526 1525 1525 1525
1464 1461 1463 1465 1469 1475 1471 1483 1480 1469 1472 1472 1473 1476 1480 1484 1488 1493 1497 1501 1504 1507 1509 1511 1513 1515 1516 1518 1519 1521 1522 1523 1525 1526 1526 1527 1527 1527 1526 1526 1526 1525 1525 1525 1525 1524 1524 1524 1524
1460 1464 1465 1467 1474 1488 1475 1480 1485 1469 1468 1469 1471 1474 1477 1481 1485 1490 1494 1498 1501 1504 1507 1509 1511 1513 1515 1516 1518 1519 1520 1521 1523 1524 1524 1525 1525 1525 1525 1525 1525 1524 1524 1523 1523 1523 1523 1522 1522
1463 1477 1492 1497 1497 1489 1468 1475 1476 1461 1461 1465 1468 1471 1475 1479 1483 1488 1492 1496 1500 1502 1505 1507 1509 1511 1512 1514 1516 1517 1518 1520 1521 1521 1522 1523 1524 1524 1523 1523 1523 1522 1522 1521 1521 1521 1520 1520 1521
1463 1473 1494 1505 1500 1485 1470 1477 1468 1458 1461 1464 1466 1469 1472 1477 1481 1486 1491 1494 1497 1500 1503 1506 1507 1509 1511 1512 1514 1515 1517 1518 1519 1520 1520 1521 1522 1522 1521 1521 1521 1520 1519 1519 1518 1518 1518 1517 1518
1464 1465 1461 1475 1479 1486 1480 1471 1464 1460 1462 1464 1465 1468 1471 1476 1480 1485 1489 1492 1495 1499 1501 1503 1505 1507 1509 1511 1512 1513 1514 1516 1517 1518 1518 1519 1519 1520 1519 1519 1518 1518 1517 1517 1517 1516 1515 1515 1515
1454 1457 1463 1474 1491 1497 1486 1479 1477 1468 1467 1467 1467 1468 1471 1476 1481 1485 1488 1491 1494 1496 1499 1502 1504 1506 1508 1509 1510 1512 1512 1513 1514 1515 1516 1516 1517 1517 1517 1517 1516 1516 1515 1515 1515 1514 1513 1513 1512
1456 1460 1463 1467 1471 1487 1495 1486 1459 1462 1463 1464 1467 1469 1472 1476 1481 1485 1488 1490 1493 1495 1498 1500 1502 1504 1506 1507 1508 1510 1510 1510 1511 1512 1513 1514 1514 1515 1515 1514 1514 1513 1513 1512 1512 1511 1511 1510 1510
1450 1456 1460 1475 1479 1475 1482 1481 1453 1457 1461 1465 1467 1470 1474 1478 1480 1483 1487 1490 1492 1494 1497 1499 1501 1502 1503 1505 1506 1507 1508 1508 1509 1509 1510 1511 1512 1512 1512 1512 1511 1511 1510 1510 1509 1509 1508 1508 1508